Location: Jackson Park
(37.2862°N, 79.9123°W)
Time: 22:15:49
(UTC+00:00)

Explorer 11/Cluster Stage 4 - Pass Details

Date: 13 May 2026
Orbit: 463 x 1173 km, 28.8° (Epoch: 5 June)

Event Time Altitude Azimuth Distance (km) Brightness Sun altitude
Rises 05:28:10 0° 246° (WSW) 3,572 - -34.2°
Reaches altitude 10° 05:31:16 10° 237° (WSW) 2,499 - -34.2°
Maximum altitude 05:36:25 31° 177° (S) 1,291 - -34.1°
Drops below altitude 10° 05:40:43 10° 115° (ESE) 2,071 - -34.0°
Sets 05:43:03 0° 105° (ESE) 2,873 - -34.0°
